Pardubice, Czech Republic

7:42 PM CEST on April 29, 2017 (GMT +0200)
Pardubice

Weather History for LKPD - July, 2013

Change the Weather History Date:

Friday, July 5, 2013

  Actual Average Record
Temperature  
Mean Temperature 67 °F -  
Max Temperature 75 °F - - ()
Min Temperature 59 °F - - ()
Cooling Degree Days 2    
Growing Degree Days 17 (Base 50)    
Moisture  
Dew Point 60 °F    
Average Humidity 81    
Maximum Humidity 94    
Minimum Humidity 53    
Precipitation  
Precipitation 0.00 in - - ()
Sea Level Pressure  
Sea Level Pressure 30.26 in    
Wind  
Wind Speed 4 mph ()    
Max Wind Speed 8 mph    
Max Gust Speed 21 mph    
Visibility 6.2 miles    
Events Rain    
T = Trace of Precipitation, MM = Missing Value Source: Averaged Metar Reports

Daily Weather History Graph

Daily Weather History Graph

Search for Another Location

Airport or City:

Trip Planner

Search our weather history database for the weather conditions in past years. The results will help you decide how hot, cold, wet, or windy it might be!

Date:

Astronomy

Jul. 05, 2013 Rise Set
Actual Time 4:54 AM CEST 9:08 PM CEST
Civil Twilight 4:11 AM CEST 9:51 PM CEST
Nautical Twilight 3:07 AM CEST 10:54 PM CEST
Astronomical Twilight 1:34 AM CEST 12:29 AM CEST
Moon 2:48 AM CEST (7/5) 6:42 PM CEST (7/5)
Length of Visible Light 17h 40m
Length of Day
16h 13m
Waning Crescent, 7% of the Moon is Illuminated
Jul 5
Waning Crescent
Jul 8
New
Jul 16
First Quarter
Jul 22
Full
Jul 29
Last Quarter

Hourly Weather History & Observations

Time (CEST) Temp. Dew Point Humidity Pressure Visibility Wind Dir Wind Speed Gust Speed Precip Events Conditions
12:00 AM 64.4 °F 60.8 °F 88% 30.21 in - West 3.5 mph - N/A   Clear
1:00 AM 62.6 °F 60.8 °F 94% 30.21 in - Variable 1.2 mph - N/A   Clear
2:00 AM 60.8 °F 59.0 °F 94% 30.21 in - West 2.3 mph - N/A   Clear
3:00 AM 60.8 °F 59.0 °F 94% 30.21 in - West 3.5 mph - N/A   Clear
4:00 AM 59.0 °F 57.2 °F 94% 30.21 in - West 5.8 mph - N/A   Clear
5:00 AM 59.0 °F 57.2 °F 94% 30.24 in - West 4.6 mph - N/A   Clear
6:00 AM 59.0 °F 57.2 °F 94% 30.24 in - WSW 2.3 mph - N/A   Clear
7:00 AM 62.6 °F 59.0 °F 88% 30.24 in - Variable 2.3 mph - N/A   Clear
8:00 AM 64.4 °F 60.8 °F 88% 30.27 in - West 3.5 mph - N/A   Clear
9:00 AM 66.2 °F 60.8 °F 83% 30.27 in - WSW 4.6 mph - N/A   Clear
10:00 AM 68.0 °F 60.8 °F 78% 30.27 in - West 5.8 mph - N/A   Clear
11:00 AM 71.6 °F 59.0 °F 64% 30.27 in 6.2 mi WNW 4.6 mph - N/A   Mostly Cloudy
12:00 PM 73.4 °F 59.0 °F 61% 30.27 in 6.2 mi NW 5.8 mph - N/A   Mostly Cloudy
1:00 PM 75.2 °F 60.8 °F 61% 30.27 in 6.2 mi WNW 5.8 mph - N/A   Mostly Cloudy
2:00 PM 75.2 °F 57.2 °F 53% 30.27 in 6.2 mi Variable 4.6 mph - N/A   Mostly Cloudy
3:00 PM 71.6 °F 60.8 °F 69% 30.27 in 6.2 mi North 8.1 mph 20.7 mph N/A   Scattered Clouds
4:00 PM 68.0 °F 62.6 °F 83% 30.27 in 6.2 mi NW 6.9 mph - N/A Rain Light Rain Showers
5:00 PM 69.8 °F 62.6 °F 78% 30.27 in 6.2 mi NW 3.5 mph - N/A   Mostly Cloudy
6:00 PM 69.8 °F 62.6 °F 78% 30.27 in 6.2 mi NW 5.8 mph - N/A   Mostly Cloudy
7:00 PM 69.8 °F 60.8 °F 73% 30.27 in - NW 5.8 mph - N/A   Clear
8:00 PM 69.8 °F 62.6 °F 78% 30.30 in - NW 3.5 mph - N/A   Clear
9:00 PM 68.0 °F 62.6 °F 83% 30.30 in - WNW 4.6 mph - N/A   Clear
10:00 PM 68.0 °F 62.6 °F 83% 30.33 in - Variable 2.3 mph - N/A   Clear
11:00 PM 66.2 °F 62.6 °F 88% 30.33 in - NW 3.5 mph - N/A   Clear